Regional Weather Roundup
Issued by NWS

Home | Current Version | Previous Version | Graphics & Text | Print | Product List | Glossary On
Versions: 1 2 3 4 5 6 7 8 9 10 11 12 13 14 15 16 17 18 19 20 21 22 23 24 25 26 27 28 29 30 31 32 33 34 35 36 37 38 39 40 41 42 43 44 45 46 47 48 49 50
000
ASUS45 KSLC 260810
RWRUT

UTAH REGIONAL WEATHER ROUNDUP
NATIONAL WEATHER SERVICE SALT LAKE CITY UT
200 AM MDT SUN APR 26 2015

UTZ001>011-023>025-260900-

NORTHERN UTAH

CITY           SKY/WX    TMP DP  RH WIND       PRES   REMARKS
BRIGHAM CITY   CLOUDY    43  39  88 NW16      29.75S
HILL AFB       LGT RAIN  41  41  99 NW10      29.75R
LOGAN          LGT RAIN  43  39  86 N13       29.74R
OGDEN          LGT RAIN  42  41  96 NW12      29.74R
PROVO AIRPORT  CLOUDY    43  39  87 CALM      29.76R
SALT LAKE CITY LGT RAIN  42  39  89 SW9       29.74S
VERNAL         CLOUDY    43  38  82 CALM      29.73S
WENDOVER       MOCLDY    43  27  52 NW16G25   29.82R
HEBER CITY     MIX PCPN  37  36  93 CALM      29.73S
WEST JORDAN    CLOUDY    39  39 100 CALM      29.77R

$$

UTZ012>022-026-027-260900-

SOUTHERN/CENTRAL UTAH

CITY           SKY/WX    TMP DP  RH WIND       PRES   REMARKS
BLANDING       CLOUDY    40  39  95 CALM      29.83F
BRYCE CANYON   MOCLDY    27  25  92 W3        29.77F
CEDAR CITY     CLOUDY    39  36  89 CALM      29.78S
DELTA          CLOUDY    40  40  97 SW3       29.78S
HANKSVILLE     MOCLDY    43  37  81 CALM      29.72F
MILFORD        LGT RAIN  40  31  70 CALM      29.79S
MOAB/CYNLANDS  PTCLDY    47  45  93 E7        29.69F
PRICE          CLOUDY    42  38  85 CALM      29.72S
ST GEORGE      CLOUDY    48  43  81 CALM      29.79S
KANAB          MOCLDY    39  39 100 CALM      29.80S

$$

REGIONAL REPORTS     COLORADO/ARIZONA

CITY           SKY/WX    TMP DP  RH WIND       PRES   REMARKS
CRAIG, CO      CLOUDY    43  36  76 E9        29.76S
GRAND JUNCTION MOCLDY    45  45 100 NW6       29.73S
RIFLE          CLOUDY    44  41  89 S3        29.75F
MONTROSE       MOCLDY    43  40  89 S5        29.77F
CORTEZ         LGT RAIN  41  39  93 S14       29.79S
PAGE, AZ       CLOUDY    49  40  71 N3        29.74S
GRAND CANYON   CLOUDY    37  35  92 SW7       29.78F WCI  32
KINGMAN        CLOUDY    46  43  89 W3        29.80R
FLAGSTAFF      CLOUDY    33  33 100 S5        29.77F WCI  29

$$

REGIONAL REPORTS    NEVADA/IDAHO/WYOMING

CITY           SKY/WX    TMP DP  RH WIND       PRES   REMARKS
LAS VEGAS, NV  MOCLDY    55  41  59 W9        29.76R
ELY            CLOUDY    36  29  75 NW10      29.87S WCI  28
ELKO           PTCLDY    38  29  70 NW12      29.92R WCI  30
POCATELLO, ID  CLOUDY    40  38  93 SW15      29.81S WCI  32
BURLEY         CLOUDY    38  30  73 W17G25    29.83R WCI  28
EVANSTON, WY   LGT RAIN  35  34  96 NW8       29.72S VSB 1/4 WCI  29
ROCK SPRINGS   LGT RAIN  41  36  82 SE8       29.73F
KEMMERER       CLOUDY    36  34  93 NE14      29.72F WCI  27

$$



USA.gov is the U.S. government's official web portal to all federal, state and local government web resources and services.